When you browse on this site, cookies collect data to enhance your experience and personalize the content and advertising you see.
Visit our Privacy Policy to learn more. By continuing to use the site, you agree to this use of cookies and data.
  • Em Portugal
  • Lista de países
  • Para 7 dias
  • Temperatura da água
  • Mapas de satélite
  • Mapa do tempo
  • Widgets de tempo
  • user-avatar
    Iniciar Sessão

    Previsão horária em Gradek

    Hoje, 26 Março, Terça-feira

    Tempo Temperatura Precipitação Vento Pressão Humidade
    00:00 -1°C° 0 mm 4 m/s 751 mmHg 91%
    01:00 0°C° 0 mm 3 m/s 751 mmHg 92%
    02:00 0°C° 0 mm 3 m/s 752 mmHg 93%
    03:00 -1°C° 0 mm 3 m/s 752 mmHg 94%
    04:00 -1°C° 0 mm 3 m/s 752 mmHg 95%
    05:00 -2°C° 0 mm 4 m/s 752 mmHg 92%
    06:00 -1°C° 0 mm 4 m/s 752 mmHg 90%
    07:00 -1°C° 0 mm 5 m/s 752 mmHg 85%
    08:00 +1°C° 0 mm 6 m/s 751 mmHg 79%
    09:00 +2°C° 0 mm 7 m/s 751 mmHg 74%
    10:00 +2°C° 0 mm 9 m/s 750 mmHg 68%
    11:00 +2°C° 0.1 mm 9 m/s 750 mmHg 67%
    12:00 +2°C° 0.1 mm 9 m/s 749 mmHg 67%
    13:00 +2°C° 0.1 mm 10 m/s 749 mmHg 66%
    14:00 +1°C° 0.5 mm 9 m/s 749 mmHg 65%
    15:00 +1°C° 0.5 mm 9 m/s 749 mmHg 63%
    16:00 0°C° 0.5 mm 9 m/s 749 mmHg 62%
    17:00 -1°C° 0 mm 8 m/s 750 mmHg 65%
    18:00 -2°C° 0 mm 7 m/s 751 mmHg 69%
    19:00 -3°C° 0 mm 6 m/s 751 mmHg 72%
    20:00 -3°C° 0 mm 6 m/s 752 mmHg 75%
    21:00 -3°C° 0 mm 6 m/s 753 mmHg 77%
    22:00 -3°C° 0 mm 6 m/s 754 mmHg 80%
    23:00 -3°C° 0 mm 6 m/s 755 mmHg 83%

    Amanhã, 27 Março, Quarta-feira

    Tempo Temperatura Precipitação Vento Pressão Humidade
    00:00 -2°C° 0 mm 5 m/s 755 mmHg 86%
    01:00 -2°C° 0 mm 4 m/s 756 mmHg 89%
    02:00 -3°C° 0 mm 4 m/s 756 mmHg 90%
    03:00 -2°C° 0 mm 3 m/s 757 mmHg 92%
    04:00 -2°C° 0 mm 3 m/s 757 mmHg 93%
    05:00 -2°C° 0 mm 3 m/s 757 mmHg 90%
    06:00 -1°C° 0 mm 3 m/s 758 mmHg 86%
    07:00 -1°C° 0 mm 3 m/s 758 mmHg 82%
    08:00 +1°C° 0 mm 3 m/s 758 mmHg 72%
    09:00 +3°C° 0 mm 3 m/s 759 mmHg 61%
    10:00 +5°C° 0 mm 3 m/s 759 mmHg 51%
    11:00 +5°C° 0 mm 4 m/s 759 mmHg 49%
    12:00 +6°C° 0 mm 4 m/s 759 mmHg 47%
    13:00 +7°C° 0 mm 5 m/s 759 mmHg 46%
    14:00 +7°C° 0 mm 5 m/s 758 mmHg 49%
    15:00 +7°C° 0 mm 4 m/s 758 mmHg 51%
    16:00 +7°C° 0 mm 4 m/s 758 mmHg 54%
    17:00 +6°C° 0.3 mm 4 m/s 758 mmHg 66%
    18:00 +5°C° 0.3 mm 3 m/s 758 mmHg 77%
    19:00 +5°C° 0.3 mm 2 m/s 758 mmHg 89%
    20:00 +5°C° 0.2 mm 2 m/s 758 mmHg 91%
    21:00 +5°C° 0.2 mm 2 m/s 758 mmHg 93%
    22:00 +5°C° 0.2 mm 2 m/s 758 mmHg 95%
    23:00 +5°C° 0.1 mm 2 m/s 758 mmHg 96%

    Depois de amanhã, 28 Março, Quinta-feira

    Tempo Temperatura Precipitação Vento Pressão Humidade
    00:00 +5°C° 0.1 mm 2 m/s 758 mmHg 96%
    01:00 +5°C° 0.1 mm 2 m/s 758 mmHg 97%
    02:00 +5°C° 0 mm 2 m/s 758 mmHg 97%
    03:00 +5°C° 0 mm 2 m/s 758 mmHg 97%
    04:00 +5°C° 0 mm 2 m/s 759 mmHg 97%
    05:00 +5°C° 0 mm 2 m/s 759 mmHg 96%
    06:00 +5°C° 0 mm 2 m/s 759 mmHg 94%
    07:00 +5°C° 0 mm 2 m/s 760 mmHg 93%
    08:00 +6°C° 0 mm 2 m/s 760 mmHg 88%
    09:00 +7°C° 0 mm 2 m/s 761 mmHg 83%
    10:00 +8°C° 0 mm 2 m/s 761 mmHg 78%
    11:00 +8°C° 0 mm 2 m/s 761 mmHg 76%
    12:00 +8°C° 0 mm 2 m/s 762 mmHg 74%
    13:00 +9°C° 0 mm 2 m/s 762 mmHg 72%
    14:00 +9°C° 0 mm 2 m/s 762 mmHg 72%
    15:00 +9°C° 0 mm 2 m/s 762 mmHg 72%
    16:00 +10°C° 0 mm 1 m/s 762 mmHg 72%
    17:00 +9°C° 0 mm 1 m/s 762 mmHg 75%
    18:00 +8°C° 0 mm 1 m/s 763 mmHg 78%
    19:00 +7°C° 0 mm 1 m/s 763 mmHg 81%
    20:00 +7°C° 0 mm 1 m/s 763 mmHg 83%
    21:00 +5°C° 0 mm 2 m/s 763 mmHg 86%
    22:00 +5°C° 0 mm 2 m/s 764 mmHg 88%
    23:00 +4°C° 0 mm 2 m/s 764 mmHg 89%

    29 Março, Sexta-feira

    Tempo Temperatura Precipitação Vento Pressão Humidade
    00:00 +3°C° 0 mm 3 m/s 764 mmHg 90%
    01:00 +3°C° 0 mm 3 m/s 764 mmHg 91%
    02:00 +3°C° 0 mm 3 m/s 763 mmHg 92%
    03:00 +3°C° 0 mm 3 m/s 763 mmHg 92%
    04:00 +2°C° 0 mm 3 m/s 763 mmHg 93%
    05:00 +3°C° 0 mm 3 m/s 763 mmHg 92%
    06:00 +4°C° 0 mm 4 m/s 763 mmHg 91%
    07:00 +5°C° 0 mm 4 m/s 763 mmHg 90%
    08:00 +6°C° 0 mm 4 m/s 763 mmHg 86%
    09:00 +8°C° 0 mm 5 m/s 763 mmHg 81%
    10:00 +10°C° 0 mm 5 m/s 763 mmHg 77%
    11:00 +12°C° 0 mm 5 m/s 763 mmHg 73%
    12:00 +13°C° 0 mm 5 m/s 762 mmHg 68%
    13:00 +14°C° 0 mm 5 m/s 762 mmHg 64%
    14:00 +14°C° 0 mm 5 m/s 762 mmHg 64%
    15:00 +14°C° 0 mm 4 m/s 762 mmHg 64%
    16:00 +14°C° 0 mm 4 m/s 761 mmHg 63%
    17:00 +13°C° 0 mm 3 m/s 761 mmHg 69%
    18:00 +12°C° 0 mm 3 m/s 761 mmHg 75%
    19:00 +10°C° 0 mm 2 m/s 761 mmHg 81%
    20:00 +10°C° 0 mm 2 m/s 761 mmHg 84%
    21:00 +9°C° 0 mm 3 m/s 761 mmHg 86%
    22:00 +8°C° 0 mm 3 m/s 761 mmHg 88%
    23:00 +8°C° 0 mm 3 m/s 761 mmHg 89%

    30 Março, Sábado

    Tempo Temperatura Precipitação Vento Pressão Humidade
    00:00 +7°C° 0 mm 3 m/s 761 mmHg 90%
    01:00 +7°C° 0 mm 3 m/s 761 mmHg 91%
    02:00 +7°C° 0 mm 3 m/s 760 mmHg 92%
    03:00 +7°C° 0 mm 3 m/s 760 mmHg 93%
    04:00 +5°C° 0 mm 3 m/s 760 mmHg 94%
    05:00 +7°C° 0 mm 3 m/s 760 mmHg 92%
    06:00 +8°C° 0 mm 3 m/s 760 mmHg 90%
    07:00 +8°C° 0 mm 3 m/s 760 mmHg 89%
    08:00 +10°C° 0 mm 4 m/s 760 mmHg 82%
    09:00 +12°C° 0 mm 4 m/s 759 mmHg 76%
    10:00 +13°C° 0 mm 4 m/s 759 mmHg 70%
    11:00 +14°C° 0 mm 4 m/s 759 mmHg 66%
    12:00 +15°C° 0 mm 5 m/s 758 mmHg 63%
    13:00 +16°C° 0 mm 5 m/s 758 mmHg 60%
    14:00 +16°C° 0 mm 5 m/s 757 mmHg 60%
    15:00 +15°C° 0 mm 4 m/s 757 mmHg 59%
    16:00 +15°C° 0 mm 4 m/s 756 mmHg 59%
    17:00 +14°C° 0 mm 4 m/s 756 mmHg 65%
    18:00 +12°C° 0 mm 3 m/s 756 mmHg 71%
    19:00 +12°C° 0 mm 2 m/s 755 mmHg 77%
    20:00 +10°C° 0 mm 2 m/s 755 mmHg 78%
    21:00 +10°C° 0 mm 2 m/s 755 mmHg 79%
    22:00 +9°C° 0 mm 2 m/s 755 mmHg 80%
    23:00 +9°C° 0 mm 2 m/s 754 mmHg 81%

    31 Março, Domingo

    Tempo Temperatura Precipitação Vento Pressão Humidade
    00:00 +9°C° 0 mm 2 m/s 754 mmHg 81%
    01:00 +8°C° 0 mm 2 m/s 754 mmHg 82%
    02:00 +8°C° 0 mm 2 m/s 753 mmHg 83%
    03:00 +7°C° 0 mm 2 m/s 753 mmHg 84%
    04:00 +7°C° 0 mm 2 m/s 753 mmHg 85%
    05:00 +7°C° 0 mm 2 m/s 753 mmHg 82%
    06:00 +8°C° 0 mm 2 m/s 753 mmHg 80%
    07:00 +8°C° 0 mm 2 m/s 752 mmHg 78%
    08:00 +10°C° 0 mm 2 m/s 753 mmHg 74%
    09:00 +12°C° 0 mm 2 m/s 753 mmHg 70%
    10:00 +13°C° 0 mm 3 m/s 753 mmHg 67%
    11:00 +12°C° 0.3 mm 4 m/s 753 mmHg 71%
    12:00 +9°C° 0.3 mm 6 m/s 753 mmHg 75%
    13:00 +8°C° 0.3 mm 7 m/s 753 mmHg 79%
    14:00 +6°C° 0.2 mm 7 m/s 753 mmHg 76%
    15:00 +7°C° 0.2 mm 6 m/s 753 mmHg 74%
    16:00 +6°C° 0.2 mm 5 m/s 754 mmHg 72%
    17:00 +5°C° 0 mm 5 m/s 754 mmHg 73%
    18:00 +3°C° 0 mm 5 m/s 755 mmHg 73%
    19:00 +4°C° 0 mm 4 m/s 756 mmHg 74%
    20:00 +3°C° 0 mm 4 m/s 756 mmHg 75%
    21:00 +1°C° 0 mm 5 m/s 756 mmHg 76%
    22:00 0°C° 0 mm 5 m/s 757 mmHg 76%
    23:00 0°C° 0 mm 5 m/s 757 mmHg 78%
    Mostrar mais